ROMMA est une association bénévole à but non lucratif. Votre soutien est indispensable : ADHERER à ROMMA ou FAIRE un DON

Le Versoud - (38, Isère)

Vallée du Grésivaudan (220 m)   Longitude: 05° 51' 44" E   Latitude: 45° 13' 06" N Station partenaire n°6
 

Détail journalier du     <<     >>

Température Precipitation Humidité Pression Vent Dir Rafale Dir. rafale Ensol.
Heure (°C) (mm) (%) (hPa) (km/h) (km/h) (min)
01:00 4.1089101400---0
02:00 5.0086101302NO0
03:00 4.1087101200---0
04:00 4.2088101002NO0
05:00 4.4085100900---0
06:00 4.60851009011ESE0
07:00 4.608610081---11S0
08:00 5.808010091---11O0
09:00 5.908210101---18ONO0
10:00 6.90811010010O0
11:00 9.307310111OSO13O0
12:00 14.605210118SSO21SSO0
13:00 13.205910134OSO24OSO0
14:00 13.704310133S24OSO0
15:00 15.703010127S39SSE30
16:00 15.603210113SSO31SSO20
17:00 14.203710122SSO27SSO0
18:00 13.6039101206SSO5
19:00 12.504310141SSO26OSO0
20:00 11.30441014018SSO0
21:00 11.2047101508SSO0
22:00 8.0071101603ENE0
23:00 7.5073101705ONO0
minuit 7.3074101700---0

Graphique du 04-03-2019

 

Serveur OMMA